JF7ELG-13 Weather Reports


time (UTC)temp
C
wind
direction
speed
KPH
gust
KPH
rain 1hr
cm
rain 24hr
cm
rain mn
cm
humidity
%
barometer
mb
20260509001816 17 84 0.0 12.9 0.00 1.30 0.00 53 1004.3
20260509000335 19 84 0.0 1.6 0.00 1.30 0.00 56 1003.5
20260508234828 17 101 0.0 4.8 0.00 1.30 0.00 59 1003.2
20260508233333 17 92 0.0 8.0 0.00 1.30 0.00 58 1003.2
20260508231829 17 131 0.0 6.4 0.00 1.30 0.00 57 1003.0
20260508230350 17 85 0.0 4.8 0.00 1.30 0.00 58 1002.6
20260508224823 17 91 0.0 6.4 0.00 1.30 0.00 59 1002.5
20260508223350 16 99 1.6 8.0 0.00 1.30 0.00 60 1002.3
20260508221825 16 105 0.0 8.0 0.00 1.30 0.00 58 1002.6
20260508220330 16 125 1.6 6.4 0.00 1.30 0.00 59 1002.6
20260508214826 16 94 0.0 3.2 0.00 1.30 0.00 58 1002.4
20260508213332 15 98 0.0 6.4 0.00 1.30 0.00 59 1002.2
20260508211846 15 94 0.0 6.4 0.00 1.30 0.00 60 1001.8
20260508210345 14 96 0.0 6.4 0.00 1.30 0.00 60 1001.9
20260508204820 14 125 1.6 6.4 0.00 1.30 0.00 60 1001.6
20260508203323 14 121 1.6 8.0 0.00 1.30 0.00 59 1001.4
20260508201822 14 108 1.6 8.0 0.00 1.30 0.00 58 1001.4
20260508200346 14 139 1.6 9.7 0.00 1.30 0.00 59 1001.2
20260508194817 14 113 1.6 8.0 0.00 1.30 0.00 57 1000.6
20260508193325 14 110 1.6 8.0 0.00 1.30 0.00 57 1000.2
20260508191831 14 124 3.2 9.7 0.00 1.30 0.00 57 1000.3
20260508190330 14 107 3.2 8.0 0.00 1.30 0.00 57 1000.4
20260508184828 13 139 0.0 6.4 0.00 1.30 0.00 61 1000.3
20260508183351 12 103 0.0 1.6 0.00 1.30 0.00 65 1000.7
20260508181848 12 94 0.0 3.2 0.00 1.30 0.00 64 1000.8
20260508180351 12 56 0.0 1.6 0.00 1.30 0.00 70 1000.7
20260508174830 11 84 0.0 1.6 0.00 1.30 0.00 77 1000.9
20260508173348 12 79 0.0 0.0 0.00 1.30 0.00 72 1000.5
20260508171816 13 98 0.0 4.8 0.00 1.30 0.00 65 1000.3
20260508170333 12 58 0.0 1.6 0.00 1.30 0.00 76 1000.2
20260508164828 12 110 0.0 0.0 0.00 1.30 0.00 77 1000.4
20260508163329 12 85 0.0 1.6 0.00 1.30 0.00 74 1000.4
20260508161824 12 85 0.0 1.6 0.00 1.30 0.00 85 1000.7
20260508160325 12 110 0.0 0.0 0.00 1.30 0.00 87 1000.6
20260508154820 12 76 0.0 1.6 0.00 1.30 0.00 87 1000.4
20260508153359 12 83 0.0 1.6 0.00 1.30 0.00 87 1000.4
20260508151830 12 98 0.0 1.6 0.00 1.30 0.00 89 1000.4
20260508150330 13 94 0.0 0.0 0.00 1.30 0.00 84 1000.4
20260508144825 13 89 0.0 1.6 0.00 1.30 0.00 82 1000.3
20260508143325 13 113 0.0 1.6 0.10 1.30 0.00 89 1000.6
20260508141821 13 66 0.0 4.8 0.10 1.30 0.00 86 1000.2
20260508140340 14 91 0.0 3.2 0.10 1.30 0.00 85 1000.0
20260508134815 14 90 0.0 3.2 0.10 1.30 0.33 91 999.9
20260508133338 14 77 0.0 1.6 0.00 1.19 0.30 93 1000.2
20260508131830 15 96 0.0 0.0 0.00 1.19 0.30 92 999.6
20260508130334 15 96 0.0 0.0 0.00 1.19 0.30 92 1000.0
20260508124829 15 96 0.0 0.0 0.00 1.19 0.30 93 999.9
20260508123331 15 89 0.0 1.6 0.00 1.19 0.30 95 999.8
20260508121831 16 92 0.0 0.0 0.00 1.19 0.30 95 999.4
20260508120333 16 92 0.0 0.0 0.10 1.19 0.30 95 999.5
20260508114842 16 92 0.0 0.0 0.20 1.19 0.30 95 999.7
20260508113340 16 92 0.0 0.0 0.41 1.19 0.30 95 999.7
20260508111831 17 80 0.0 0.0 0.61 1.19 0.30 95 999.4
20260508110339 17 80 0.0 0.0 0.79 1.09 0.28 95 999.5
20260508104832 17 79 0.0 0.0 0.99 0.99 0.25 94 999.5
20260508103336 17 79 0.0 1.6 0.79 0.79 0.20 94 999.5
20260508101834 17 104 0.0 0.0 0.61 0.61 0.15 93 999.2
20260508100319 17 105 0.0 1.6 0.20 0.20 0.05 92 999.0
20260508094844 17 106 0.0 1.6 0.00 0.00 0.00 91 998.5
20260508093318 18 60 0.0 0.0 0.00 0.00 0.00 91 998.3
20260508091816 18 60 0.0 0.0 0.00 0.00 0.00 91 998.6
20260508090317 18 60 0.0 0.0 0.00 0.00 0.00 91 998.2
20260508084817 18 60 0.0 0.0 0.00 0.00 0.00 90 997.9
20260508083320 18 82 0.0 1.6 0.00 0.00 0.00 89 998.1
20260508081817 18 91 0.0 1.6 0.00 0.00 0.00 88 998.4
20260508080341 18 66 0.0 3.2 0.00 0.00 0.00 88 998.4
20260508074831 18 23 1.6 4.8 0.00 0.00 0.00 85 998.5
20260508073333 20 39 1.6 6.4 0.00 0.00 0.00 77 998.8
20260508071827 21 118 0.0 0.0 0.00 0.00 0.00 72 999.4
20260508070325 21 118 0.0 0.0 0.00 0.00 0.00 71 999.2
20260508064821 22 72 0.0 1.6 0.00 0.00 0.00 64 998.9
20260508063323 22 91 0.0 1.6 0.00 0.00 0.00 62 999.3
20260508061821 22 91 0.0 1.6 0.00 0.00 0.00 58 999.3
20260508060325 22 344 1.6 6.4 0.00 0.00 0.00 55 999.3
20260508054829 22 321 1.6 3.2 0.00 0.00 0.00 53 999.7
20260508053330 22 75 1.6 4.8 0.00 0.00 0.00 53 999.9
20260508051822 22 307 1.6 4.8 0.00 0.00 0.00 55 1000.1
20260508050341 22 70 0.0 4.8 0.00 0.00 0.00 60 1000.7
20260508044834 22 311 1.6 4.8 0.00 0.00 0.00 62 1001.0
20260508043337 22 150 0.0 3.2 0.00 0.00 0.00 64 1001.4
20260508041854 22 311 1.6 3.2 0.00 0.00 0.00 67 1001.7
20260508040337 21 87 1.6 4.8 0.00 0.00 0.00 66 1001.9
20260508034835 21 91 0.0 3.2 0.00 0.00 0.00 70 1001.7
20260508033320 20 284 1.6 6.4 0.00 0.00 0.00 73 1001.5
20260508031816 20 302 1.6 4.8 0.00 0.00 0.00 71 1002.3
20260508030338 20 52 0.0 3.2 0.00 0.00 0.00 71 1002.2
20260508024828 21 60 1.6 3.2 0.00 0.00 0.00 71 1002.1
20260508023335 21 66 0.0 1.6 0.00 0.00 0.00 72 1002.0
20260508021830 21 46 0.0 1.6 0.00 0.00 0.00 71 1002.1
20260508020351 21 289 0.0 4.8 0.00 0.00 0.00 70 1002.7
20260508014823 21 80 0.0 4.8 0.00 0.00 0.00 71 1003.5
20260508013329 22 96 1.6 4.8 0.00 0.00 0.00 67 1003.8
20260508011829 22 340 1.6 6.4 0.00 0.00 0.00 66 1003.7
20260508010351 23 333 1.6 6.4 0.00 0.00 0.00 64 1003.5
20260508004824 23 330 0.0 3.2 0.00 0.00 0.00 65 1003.9
20260508003324 23 308 0.0 3.2 0.00 0.00 0.00 66 1003.9